Time,TemperatureF,DewpointF,PressureIn,WindDirection,WindDirectionDegrees,WindSpeedMPH,WindSpeedGustMPH,Humidity,HourlyPrecipIn,Conditions,Clouds,dailyrainin,SoftwareType,DateUTC
2013-05-14 00:01:00,59.0,40.0,30.14,North,0,0.0,0.0,49,0.00,,,0.00,WUHU216HW,2013-05-14 04:01:00,
2013-05-14 00:04:00,59.0,40.0,30.14,North,0,0.0,0.0,49,0.00,,,0.00,WUHU216HW,2013-05-14 04:04:00,
2013-05-14 00:09:00,58.9,39.8,30.14,North,0,0.0,0.0,49,0.00,,,0.00,WUHU216HW,2013-05-14 04:09:00,
2013-05-14 00:14:00,58.7,39.6,30.14,North,0,0.0,0.0,49,0.00,,,0.00,WUHU216HW,2013-05-14 04:14:00,
2013-05-14 00:19:00,58.7,39.6,30.14,North,0,0.0,0.0,49,0.00,,,0.00,WUHU216HW,2013-05-14 04:19:00,
2013-05-14 00:24:00,58.5,40.1,30.14,North,0,0.0,0.0,50,0.00,,,0.00,WUHU216HW,2013-05-14 04:24:00,
2013-05-14 00:29:00,58.5,40.1,30.14,North,0,0.0,0.0,50,0.00,,,0.00,WUHU216HW,2013-05-14 04:29:00,
2013-05-14 00:35:00,58.5,40.5,30.15,North,0,0.0,0.0,51,0.00,,,0.00,WUHU216HW,2013-05-14 04:35:00,
2013-05-14 00:40:00,58.3,40.3,30.14,North,0,0.0,0.0,51,0.00,,,0.00,WUHU216HW,2013-05-14 04:40:00,
2013-05-14 00:45:00,58.3,40.8,30.15,North,0,0.0,0.0,52,0.00,,,0.00,WUHU216HW,2013-05-14 04:45:00,
2013-05-14 00:50:00,58.3,40.8,30.15,North,0,0.0,0.0,52,0.00,,,0.00,WUHU216HW,2013-05-14 04:50:00,
2013-05-14 00:55:00,58.1,40.6,30.14,North,0,0.0,0.0,52,0.00,,,0.00,WUHU216HW,2013-05-14 04:55:00,
2013-05-14 01:00:00,58.1,41.1,30.14,North,0,0.0,0.0,53,0.00,,,0.00,WUHU216HW,2013-05-14 05:00:00,
2013-05-14 01:05:00,58.1,41.1,30.14,North,0,0.0,0.0,53,0.00,,,0.00,WUHU216HW,2013-05-14 05:05:00,
2013-05-14 01:10:00,58.0,41.0,30.14,North,0,0.0,0.0,53,0.00,,,0.00,WUHU216HW,2013-05-14 05:10:00,
2013-05-14 01:16:00,57.8,40.8,30.14,North,0,0.0,0.0,53,0.00,,,0.00,WUHU216HW,2013-05-14 05:16:00,
2013-05-14 01:21:00,57.2,40.3,30.14,North,0,0.0,0.0,53,0.00,,,0.00,WUHU216HW,2013-05-14 05:21:00,
2013-05-14 01:26:00,56.5,40.1,30.15,North,0,0.0,0.0,54,0.00,,,0.00,WUHU216HW,2013-05-14 05:26:00,
2013-05-14 01:31:00,56.3,39.9,30.15,North,0,0.0,0.0,54,0.00,,,0.00,WUHU216HW,2013-05-14 05:31:00,
2013-05-14 01:36:00,56.3,40.3,30.14,North,0,0.0,0.0,55,0.00,,,0.00,WUHU216HW,2013-05-14 05:36:00,
2013-05-14 01:41:00,56.5,41.0,30.15,North,0,0.0,0.0,56,0.00,,,0.00,WUHU216HW,2013-05-14 05:41:00,
2013-05-14 01:46:00,56.5,41.0,30.15,North,0,0.0,0.0,56,0.00,,,0.00,WUHU216HW,2013-05-14 05:46:00,
2013-05-14 01:51:00,56.3,40.3,30.15,North,0,0.0,0.0,55,0.00,,,0.00,WUHU216HW,2013-05-14 05:51:00,
2013-05-14 01:57:00,56.2,40.1,30.15,North,0,0.0,0.0,55,0.00,,,0.00,WUHU216HW,2013-05-14 05:57:00,
2013-05-14 02:02:00,56.3,39.9,30.15,North,0,0.0,0.0,54,0.00,,,0.00,WUHU216HW,2013-05-14 06:02:00,
2013-05-14 02:07:00,56.3,39.9,30.15,North,0,0.0,0.0,54,0.00,,,0.00,WUHU216HW,2013-05-14 06:07:00,
2013-05-14 02:12:00,56.3,39.9,30.15,North,0,0.0,0.0,54,0.00,,,0.00,WUHU216HW,2013-05-14 06:12:00,
2013-05-14 02:17:00,56.3,39.9,30.15,North,0,0.0,0.0,54,0.00,,,0.00,WUHU216HW,2013-05-14 06:17:00,
2013-05-14 02:22:00,56.2,39.7,30.15,North,0,0.0,0.0,54,0.00,,,0.00,WUHU216HW,2013-05-14 06:22:00,
2013-05-14 02:27:00,56.2,40.1,30.15,North,0,0.0,0.0,55,0.00,,,0.00,WUHU216HW,2013-05-14 06:27:00,
2013-05-14 02:32:00,56.5,41.4,30.16,North,0,0.0,0.0,57,0.00,,,0.00,WUHU216HW,2013-05-14 06:32:00,
2013-05-14 02:38:00,57.2,42.7,30.16,North,0,0.0,0.0,58,0.00,,,0.00,WUHU216HW,2013-05-14 06:38:00,
2013-05-14 02:43:00,57.8,43.1,30.16,North,0,0.0,0.0,58,0.00,,,0.00,WUHU216HW,2013-05-14 06:43:00,
2013-05-14 02:48:00,58.1,43.5,30.16,North,0,0.0,0.0,58,0.00,,,0.00,WUHU216HW,2013-05-14 06:48:00,
2013-05-14 02:53:00,58.3,43.6,30.16,North,0,0.0,0.0,58,0.00,,,0.00,WUHU216HW,2013-05-14 06:53:00,
2013-05-14 02:58:00,58.3,43.6,30.16,North,0,0.0,0.0,58,0.00,,,0.00,WUHU216HW,2013-05-14 06:58:00,
2013-05-14 03:03:00,58.5,44.2,30.16,North,0,0.0,0.0,59,0.00,,,0.00,WUHU216HW,2013-05-14 07:03:00,
2013-05-14 03:08:00,59.2,44.9,30.16,North,0,0.0,0.0,59,0.00,,,0.00,WUHU216HW,2013-05-14 07:08:00,
2013-05-14 03:13:00,59.8,44.9,30.16,North,0,0.0,0.0,58,0.00,,,0.00,WUHU216HW,2013-05-14 07:13:00,
2013-05-14 03:19:00,60.3,45.5,30.16,North,0,0.0,0.0,58,0.00,,,0.00,WUHU216HW,2013-05-14 07:19:00,
2013-05-14 03:24:00,60.3,44.0,30.16,North,0,0.0,0.0,55,0.00,,,0.00,WUHU216HW,2013-05-14 07:24:00,
2013-05-14 03:29:00,60.5,43.8,30.16,North,0,0.0,0.0,54,0.00,,,0.00,WUHU216HW,2013-05-14 07:29:00,
2013-05-14 03:34:00,60.7,43.9,30.16,North,0,0.0,0.0,54,0.00,,,0.00,WUHU216HW,2013-05-14 07:34:00,
2013-05-14 03:39:00,60.7,44.8,30.16,North,0,0.0,0.0,56,0.00,,,0.00,WUHU216HW,2013-05-14 07:39:00,
2013-05-14 03:44:00,60.8,46.5,30.16,North,0,0.0,0.0,59,0.00,,,0.00,WUHU216HW,2013-05-14 07:44:00,
2013-05-14 03:49:00,60.8,46.0,30.16,North,0,0.0,0.0,58,0.00,,,0.00,WUHU216HW,2013-05-14 07:49:00,
2013-05-14 03:54:00,60.8,46.5,30.16,North,0,0.0,0.0,59,0.00,,,0.00,WUHU216HW,2013-05-14 07:54:00,
2013-05-14 04:00:00,60.8,44.6,30.16,North,0,0.0,0.0,55,0.00,,,0.00,WUHU216HW,2013-05-14 08:00:00,
2013-05-14 04:05:00,60.8,44.6,30.17,North,0,0.0,0.0,55,0.00,,,0.00,WUHU216HW,2013-05-14 08:05:00,
2013-05-14 04:10:00,61.2,44.9,30.17,North,0,0.0,0.0,55,0.00,,,0.00,WUHU216HW,2013-05-14 08:10:00,
2013-05-14 04:15:00,60.8,45.0,30.17,North,0,0.0,0.0,56,0.00,,,0.00,WUHU216HW,2013-05-14 08:15:00,
2013-05-14 04:20:00,59.9,44.2,30.17,North,0,0.0,0.0,56,0.00,,,0.00,WUHU216HW,2013-05-14 08:20:00,
2013-05-14 04:25:00,59.0,43.7,30.17,North,0,0.0,0.0,57,0.00,,,0.00,WUHU216HW,2013-05-14 08:25:00,
2013-05-14 04:30:00,58.5,43.7,30.17,North,0,0.0,0.0,58,0.00,,,0.00,WUHU216HW,2013-05-14 08:30:00,
2013-05-14 04:35:00,58.3,44.1,30.18,North,0,0.0,0.0,59,0.00,,,0.00,WUHU216HW,2013-05-14 08:35:00,
2013-05-14 04:40:00,58.7,43.9,30.18,North,0,0.0,0.0,58,0.00,,,0.00,WUHU216HW,2013-05-14 08:40:00,
2013-05-14 04:46:00,58.3,43.6,30.18,North,0,0.0,0.0,58,0.00,,,0.00,WUHU216HW,2013-05-14 08:46:00,
2013-05-14 04:51:00,58.0,43.3,30.18,North,0,0.0,0.0,58,0.00,,,0.00,WUHU216HW,2013-05-14 08:51:00,
2013-05-14 04:56:00,57.4,43.3,30.18,North,0,0.0,0.0,59,0.00,,,0.00,WUHU216HW,2013-05-14 08:56:00,
2013-05-14 05:01:00,57.2,43.6,30.18,North,0,0.0,0.0,60,0.00,,,0.00,WUHU216HW,2013-05-14 09:01:00,
2013-05-14 05:06:00,57.2,43.6,30.18,North,0,0.0,0.0,60,0.00,,,0.00,WUHU216HW,2013-05-14 09:06:00,
2013-05-14 05:11:00,57.6,43.9,30.19,North,0,0.0,0.0,60,0.00,,,0.00,WUHU216HW,2013-05-14 09:11:00,
2013-05-14 05:16:00,58.0,43.7,30.18,North,0,0.0,0.0,59,0.00,,,0.00,WUHU216HW,2013-05-14 09:16:00,
2013-05-14 05:21:00,58.1,43.9,30.19,North,0,0.0,0.0,59,0.00,,,0.00,WUHU216HW,2013-05-14 09:21:00,
2013-05-14 05:27:00,57.6,43.4,30.19,North,0,0.0,0.0,59,0.00,,,0.00,WUHU216HW,2013-05-14 09:27:00,
2013-05-14 05:32:00,57.2,42.7,30.19,North,0,0.0,0.0,58,0.00,,,0.00,WUHU216HW,2013-05-14 09:32:00,
2013-05-14 05:37:00,57.1,41.9,30.19,North,0,0.0,0.0,57,0.00,,,0.00,WUHU216HW,2013-05-14 09:37:00,
2013-05-14 05:42:00,57.8,42.7,30.19,North,0,0.0,0.0,57,0.00,,,0.00,WUHU216HW,2013-05-14 09:42:00,
2013-05-14 05:47:00,58.1,43.5,30.19,North,0,0.0,0.0,58,0.00,,,0.00,WUHU216HW,2013-05-14 09:47:00,
2013-05-14 05:52:00,58.5,43.7,30.19,North,0,0.0,0.0,58,0.00,,,0.00,WUHU216HW,2013-05-14 09:52:00,
2013-05-14 05:57:00,58.9,44.1,30.19,North,0,0.0,0.0,58,0.00,,,0.00,WUHU216HW,2013-05-14 09:57:00,
2013-05-14 06:02:00,59.2,44.5,30.19,North,0,0.0,0.0,58,0.00,,,0.00,WUHU216HW,2013-05-14 10:02:00,
2013-05-14 06:07:00,59.4,44.7,30.19,North,0,0.0,0.0,58,0.00,,,0.00,WUHU216HW,2013-05-14 10:07:00,
2013-05-14 06:13:00,59.4,42.8,30.19,North,0,0.0,0.0,54,0.00,,,0.00,WUHU216HW,2013-05-14 10:13:00,
2013-05-14 06:18:00,59.4,42.2,30.20,North,0,0.0,0.0,53,0.00,,,0.00,WUHU216HW,2013-05-14 10:18:00,
2013-05-14 06:23:00,59.9,42.8,30.20,North,0,0.0,0.0,53,0.00,,,0.00,WUHU216HW,2013-05-14 10:23:00,
2013-05-14 06:28:00,60.1,41.9,30.20,North,0,0.0,0.0,51,0.00,,,0.00,WUHU216HW,2013-05-14 10:28:00,
2013-05-14 06:33:00,60.1,41.5,30.20,North,0,0.0,0.0,50,0.00,,,0.00,WUHU216HW,2013-05-14 10:33:00,
2013-05-14 06:38:00,60.1,41.9,30.21,North,0,0.0,0.0,51,0.00,,,0.00,WUHU216HW,2013-05-14 10:38:00,
2013-05-14 06:43:00,60.3,42.6,30.21,North,0,0.0,0.0,52,0.00,,,0.00,WUHU216HW,2013-05-14 10:43:00,
2013-05-14 06:48:00,60.5,42.8,30.21,North,0,0.0,0.0,52,0.00,,,0.00,WUHU216HW,2013-05-14 10:48:00,
2013-05-14 06:53:00,60.3,41.7,30.21,North,0,0.0,0.0,50,0.00,,,0.00,WUHU216HW,2013-05-14 10:53:00,
2013-05-14 06:58:00,60.3,42.1,30.22,North,0,0.0,0.0,51,0.00,,,0.00,WUHU216HW,2013-05-14 10:58:00,
2013-05-14 07:03:00,60.1,43.4,30.22,North,0,0.0,0.0,54,0.00,,,0.00,WUHU216HW,2013-05-14 11:03:00,
2013-05-14 07:09:00,59.6,42.8,30.22,North,0,0.0,0.0,54,0.00,,,0.00,WUHU216HW,2013-05-14 11:09:00,
2013-05-14 07:14:00,59.4,43.2,30.22,North,0,0.0,0.0,55,0.00,,,0.00,WUHU216HW,2013-05-14 11:14:00,
2013-05-14 07:19:00,59.8,44.0,30.22,North,0,0.0,0.0,56,0.00,,,0.00,WUHU216HW,2013-05-14 11:19:00,
2013-05-14 07:24:00,59.8,44.0,30.22,North,0,0.0,0.0,56,0.00,,,0.00,WUHU216HW,2013-05-14 11:24:00,
2013-05-14 07:29:00,59.9,44.2,30.23,North,0,0.0,0.0,56,0.00,,,0.00,WUHU216HW,2013-05-14 11:29:00,
2013-05-14 07:34:00,59.9,43.2,30.23,North,0,0.0,0.0,54,0.00,,,0.00,WUHU216HW,2013-05-14 11:34:00,
2013-05-14 07:39:00,59.8,42.6,30.23,North,0,0.0,0.0,53,0.00,,,0.00,WUHU216HW,2013-05-14 11:39:00,
2013-05-14 07:44:00,59.9,42.8,30.23,North,0,0.0,0.0,53,0.00,,,0.00,WUHU216HW,2013-05-14 11:44:00,
2013-05-14 07:49:00,59.9,42.3,30.23,North,0,0.0,0.0,52,0.00,,,0.00,WUHU216HW,2013-05-14 11:49:00,
2013-05-14 07:54:00,60.5,43.2,30.23,North,0,0.0,0.0,53,0.00,,,0.00,WUHU216HW,2013-05-14 11:54:00,
2013-05-14 07:59:00,62.3,43.4,30.23,North,0,0.0,0.0,50,0.00,,,0.00,WUHU216HW,2013-05-14 11:59:00,
2013-05-14 08:04:00,63.7,44.1,30.24,North,0,0.0,0.0,49,0.00,,,0.00,WUHU216HW,2013-05-14 12:04:00,
2013-05-14 08:09:00,64.6,43.8,30.24,North,0,0.0,0.0,47,0.00,,,0.00,WUHU216HW,2013-05-14 12:09:00,
2013-05-14 08:15:00,65.2,43.2,30.24,North,0,0.0,0.0,45,0.00,,,0.00,WUHU216HW,2013-05-14 12:15:00,
2013-05-14 08:20:00,65.3,43.4,30.24,North,0,0.0,0.0,45,0.00,,,0.00,WUHU216HW,2013-05-14 12:20:00,
2013-05-14 08:25:00,65.9,43.8,30.24,North,0,0.0,0.0,45,0.00,,,0.00,WUHU216HW,2013-05-14 12:25:00,
2013-05-14 08:30:00,66.2,43.6,30.25,North,0,0.0,0.0,44,0.00,,,0.00,WUHU216HW,2013-05-14 12:30:00,
2013-05-14 08:35:00,66.2,43.6,30.25,North,0,0.0,0.0,44,0.00,,,0.00,WUHU216HW,2013-05-14 12:35:00,
2013-05-14 08:40:00,66.4,43.7,30.24,North,0,0.0,0.0,44,0.00,,,0.00,WUHU216HW,2013-05-14 12:40:00,
2013-05-14 08:45:00,66.4,43.2,30.24,North,0,0.0,0.0,43,0.00,,,0.00,WUHU216HW,2013-05-14 12:45:00,
2013-05-14 08:51:00,66.2,44.2,30.24,North,0,0.0,0.0,45,0.00,,,0.00,WUHU216HW,2013-05-14 12:51:00,
2013-05-14 08:56:00,65.7,43.7,30.22,North,0,0.0,0.0,45,0.00,,,0.00,WUHU216HW,2013-05-14 12:56:00,
2013-05-14 09:01:00,64.8,42.9,30.21,North,0,0.0,0.0,45,0.00,,,0.00,WUHU216HW,2013-05-14 13:01:00,
2013-05-14 09:06:00,64.8,42.9,30.21,North,0,0.0,0.0,45,0.00,,,0.00,WUHU216HW,2013-05-14 13:06:00,
2013-05-14 09:11:00,64.6,42.0,30.23,North,0,0.0,0.0,44,0.00,,,0.00,WUHU216HW,2013-05-14 13:11:00,
2013-05-14 09:16:00,65.2,43.2,30.24,North,0,0.0,0.0,45,0.00,,,0.00,WUHU216HW,2013-05-14 13:16:00,
2013-05-14 09:21:00,65.2,43.2,30.24,North,0,0.0,0.0,45,0.00,,,0.00,WUHU216HW,2013-05-14 13:21:00,
2013-05-14 09:26:00,65.5,42.9,30.22,North,0,0.0,0.0,44,0.00,,,0.00,WUHU216HW,2013-05-14 13:26:00,
2013-05-14 09:31:00,65.5,42.9,30.22,North,0,0.0,0.0,44,0.00,,,0.00,WUHU216HW,2013-05-14 13:31:00,
2013-05-14 09:37:00,65.9,43.3,30.24,North,0,0.0,0.0,44,0.00,,,0.00,WUHU216HW,2013-05-14 13:37:00,
2013-05-14 09:42:00,65.9,42.1,30.24,North,0,0.0,0.0,42,0.00,,,0.00,WUHU216HW,2013-05-14 13:42:00,
2013-05-14 09:47:00,65.3,41.6,30.25,North,0,0.0,0.0,42,0.00,,,0.00,WUHU216HW,2013-05-14 13:47:00,
2013-05-14 09:52:00,65.2,42.6,30.25,North,0,0.0,0.0,44,0.00,,,0.00,WUHU216HW,2013-05-14 13:52:00,
2013-05-14 09:57:00,65.5,43.5,30.24,North,0,0.0,0.0,45,0.00,,,0.00,WUHU216HW,2013-05-14 13:57:00,
2013-05-14 10:02:00,66.1,43.5,30.25,North,0,0.0,0.0,44,0.00,,,0.00,WUHU216HW,2013-05-14 14:02:00,
2013-05-14 10:07:00,65.9,43.3,30.25,North,0,0.0,0.0,44,0.00,,,0.00,WUHU216HW,2013-05-14 14:07:00,
2013-05-14 10:13:00,65.7,43.1,30.25,North,0,0.0,0.0,44,0.00,,,0.00,WUHU216HW,2013-05-14 14:13:00,
2013-05-14 10:18:00,65.5,43.5,30.25,North,0,0.0,0.0,45,0.00,,,0.00,WUHU216HW,2013-05-14 14:18:00,
2013-05-14 10:23:00,65.2,42.6,30.25,North,0,0.0,0.0,44,0.00,,,0.00,WUHU216HW,2013-05-14 14:23:00,
2013-05-14 10:28:00,65.2,40.2,30.25,North,0,0.0,0.0,40,0.00,,,0.00,WUHU216HW,2013-05-14 14:28:00,
2013-05-14 10:33:00,64.8,41.7,30.25,North,0,0.0,0.0,43,0.00,,,0.00,WUHU216HW,2013-05-14 14:33:00,
2013-05-14 10:38:00,64.8,41.7,30.25,North,0,0.0,0.0,43,0.00,,,0.00,WUHU216HW,2013-05-14 14:38:00,
2013-05-14 10:43:00,65.2,40.9,30.25,North,0,0.0,0.0,41,0.00,,,0.00,WUHU216HW,2013-05-14 14:43:00,
2013-05-14 10:48:00,65.3,39.7,30.25,North,0,0.0,0.0,39,0.00,,,0.00,WUHU216HW,2013-05-14 14:48:00,
2013-05-14 10:53:00,66.1,41.7,30.25,North,0,0.0,0.0,41,0.00,,,0.00,WUHU216HW,2013-05-14 14:53:00,
2013-05-14 10:58:00,66.8,41.7,30.25,North,0,0.0,0.0,40,0.00,,,0.00,WUHU216HW,2013-05-14 14:58:00,
2013-05-14 11:03:00,67.7,43.8,30.26,North,0,0.0,0.0,42,0.00,,,0.00,WUHU216HW,2013-05-14 15:03:00,
2013-05-14 11:08:00,68.4,44.4,30.26,North,0,0.0,0.0,42,0.00,,,0.00,WUHU216HW,2013-05-14 15:08:00,
2013-05-14 11:14:00,68.4,43.7,30.26,North,0,0.0,0.0,41,0.00,,,0.00,WUHU216HW,2013-05-14 15:14:00,
2013-05-14 11:19:00,68.8,44.1,30.26,North,0,0.0,0.0,41,0.00,,,0.00,WUHU216HW,2013-05-14 15:19:00,
2013-05-14 11:24:00,69.3,44.6,30.26,North,0,0.0,0.0,41,0.00,,,0.00,WUHU216HW,2013-05-14 15:24:00,
2013-05-14 11:29:00,69.8,45.1,30.26,North,0,0.0,0.0,41,0.00,,,0.00,WUHU216HW,2013-05-14 15:29:00,
2013-05-14 11:34:00,70.0,44.7,30.25,North,0,0.0,0.0,40,0.00,,,0.00,WUHU216HW,2013-05-14 15:34:00,
2013-05-14 11:39:00,70.2,44.8,30.26,North,0,0.0,0.0,40,0.00,,,0.00,WUHU216HW,2013-05-14 15:39:00,
2013-05-14 11:44:00,70.7,45.3,30.25,North,0,0.0,0.0,40,0.00,,,0.00,WUHU216HW,2013-05-14 15:44:00,
2013-05-14 11:49:00,70.9,45.5,30.26,North,0,0.0,0.0,40,0.00,,,0.00,WUHU216HW,2013-05-14 15:49:00,
2013-05-14 11:54:00,70.9,45.5,30.26,North,0,0.0,0.0,40,0.00,,,0.00,WUHU216HW,2013-05-14 15:54:00,
2013-05-14 12:00:00,71.6,46.1,30.25,North,0,0.0,0.0,40,0.00,,,0.00,WUHU216HW,2013-05-14 16:00:00,
2013-05-14 12:05:00,71.6,45.4,30.26,North,0,0.0,0.0,39,0.00,,,0.00,WUHU216HW,2013-05-14 16:05:00,
2013-05-14 12:10:00,71.8,46.3,30.26,North,0,0.0,0.0,40,0.00,,,0.00,WUHU216HW,2013-05-14 16:10:00,
2013-05-14 12:15:00,71.8,46.3,30.26,North,0,0.0,0.0,40,0.00,,,0.00,WUHU216HW,2013-05-14 16:15:00,
2013-05-14 12:20:00,72.0,46.5,30.26,North,0,0.0,0.0,40,0.00,,,0.00,WUHU216HW,2013-05-14 16:20:00,
2013-05-14 12:25:00,72.4,46.7,30.26,North,0,0.0,0.0,40,0.00,,,0.00,WUHU216HW,2013-05-14 16:25:00,
2013-05-14 12:30:00,72.4,46.7,30.26,North,0,0.0,0.0,40,0.00,,,0.00,WUHU216HW,2013-05-14 16:30:00,
2013-05-14 12:36:00,72.5,46.9,30.25,North,0,0.0,0.0,40,0.00,,,0.00,WUHU216HW,2013-05-14 16:36:00,
2013-05-14 12:41:00,72.7,47.1,30.26,North,0,0.0,0.0,40,0.00,,,0.00,WUHU216HW,2013-05-14 16:41:00,
2013-05-14 12:46:00,72.9,47.3,30.25,North,0,0.0,0.0,40,0.00,,,0.00,WUHU216HW,2013-05-14 16:46:00,
2013-05-14 12:51:00,73.1,47.3,30.25,North,0,0.0,0.0,40,0.00,,,0.00,WUHU216HW,2013-05-14 16:51:00,
2013-05-14 12:56:00,73.4,47.7,30.25,North,0,0.0,0.0,40,0.00,,,0.00,WUHU216HW,2013-05-14 16:56:00,
2013-05-14 13:01:00,73.4,47.7,30.25,North,0,0.0,0.0,40,0.00,,,0.00,WUHU216HW,2013-05-14 17:01:00,
2013-05-14 13:06:00,73.4,47.7,30.25,North,0,0.0,0.0,40,0.00,,,0.00,WUHU216HW,2013-05-14 17:06:00,
2013-05-14 13:11:00,74.2,48.3,30.25,North,0,0.0,0.0,40,0.00,,,0.00,WUHU216HW,2013-05-14 17:11:00,
2013-05-14 13:16:00,74.5,47.2,30.25,North,0,0.0,0.0,38,0.00,,,0.00,WUHU216HW,2013-05-14 17:16:00,
2013-05-14 13:21:00,74.0,46.7,30.25,North,0,0.0,0.0,38,0.00,,,0.00,WUHU216HW,2013-05-14 17:21:00,
2013-05-14 13:26:00,73.4,45.5,30.25,North,0,0.0,0.0,37,0.00,,,0.00,WUHU216HW,2013-05-14 17:26:00,
2013-05-14 13:31:00,72.5,44.6,30.24,North,0,0.0,0.0,37,0.00,,,0.00,WUHU216HW,2013-05-14 17:31:00,
2013-05-14 13:37:00,70.9,45.5,30.24,North,0,0.0,0.0,40,0.00,,,0.00,WUHU216HW,2013-05-14 17:37:00,
2013-05-14 13:42:00,70.9,45.5,30.24,North,0,0.0,0.0,40,0.00,,,0.00,WUHU216HW,2013-05-14 17:42:00,
2013-05-14 13:47:00,70.7,45.9,30.24,North,0,0.0,0.0,41,0.00,,,0.00,WUHU216HW,2013-05-14 17:47:00,
2013-05-14 13:52:00,70.4,45.5,30.24,North,0,0.0,0.0,41,0.00,,,0.00,WUHU216HW,2013-05-14 17:52:00,
2013-05-14 13:57:00,70.6,46.3,30.24,North,0,0.0,0.0,42,0.00,,,0.00,WUHU216HW,2013-05-14 17:57:00,
2013-05-14 14:02:00,70.7,45.3,30.24,North,0,0.0,0.0,40,0.00,,,0.00,WUHU216HW,2013-05-14 18:02:00,
2013-05-14 14:07:00,70.6,45.1,30.23,North,0,0.0,0.0,40,0.00,,,0.00,WUHU216HW,2013-05-14 18:07:00,
2013-05-14 14:12:00,70.6,46.3,30.22,North,0,0.0,0.0,42,0.00,,,0.00,WUHU216HW,2013-05-14 18:12:00,
2013-05-14 14:17:00,70.9,45.5,30.22,North,0,0.0,0.0,40,0.00,,,0.00,WUHU216HW,2013-05-14 18:17:00,
2013-05-14 14:23:00,70.7,45.9,30.22,North,0,0.0,0.0,41,0.00,,,0.00,WUHU216HW,2013-05-14 18:23:00,
2013-05-14 14:28:00,70.9,46.0,30.22,North,0,0.0,0.0,41,0.00,,,0.00,WUHU216HW,2013-05-14 18:28:00,
2013-05-14 14:33:00,71.1,45.6,30.22,North,0,0.0,0.0,40,0.00,,,0.00,WUHU216HW,2013-05-14 18:33:00,
2013-05-14 14:38:00,70.9,46.0,30.22,North,0,0.0,0.0,41,0.00,,,0.00,WUHU216HW,2013-05-14 18:38:00,
2013-05-14 14:43:00,70.9,46.0,30.22,North,0,0.0,0.0,41,0.00,,,0.00,WUHU216HW,2013-05-14 18:43:00,
2013-05-14 14:48:00,70.9,46.0,30.21,North,0,0.0,0.0,41,0.00,,,0.00,WUHU216HW,2013-05-14 18:48:00,
2013-05-14 14:53:00,70.9,46.6,30.21,North,0,0.0,0.0,42,0.00,,,0.00,WUHU216HW,2013-05-14 18:53:00,
2013-05-14 14:58:00,71.1,45.6,30.21,North,0,0.0,0.0,40,0.00,,,0.00,WUHU216HW,2013-05-14 18:58:00,
2013-05-14 15:03:00,71.5,45.9,30.21,North,0,0.0,0.0,40,0.00,,,0.00,WUHU216HW,2013-05-14 19:03:00,
2013-05-14 15:08:00,71.5,45.9,30.21,North,0,0.0,0.0,40,0.00,,,0.00,WUHU216HW,2013-05-14 19:08:00,
2013-05-14 15:14:00,71.6,45.4,30.21,North,0,0.0,0.0,39,0.00,,,0.00,WUHU216HW,2013-05-14 19:14:00,
2013-05-14 15:19:00,71.6,46.1,30.21,North,0,0.0,0.0,40,0.00,,,0.00,WUHU216HW,2013-05-14 19:19:00,
2013-05-14 15:24:00,71.6,46.7,30.21,North,0,0.0,0.0,41,0.00,,,0.00,WUHU216HW,2013-05-14 19:24:00,
2013-05-14 15:29:00,71.8,46.8,30.21,North,0,0.0,0.0,41,0.00,,,0.00,WUHU216HW,2013-05-14 19:29:00,
2013-05-14 15:34:00,72.0,47.0,30.21,North,0,0.0,0.0,41,0.00,,,0.00,WUHU216HW,2013-05-14 19:34:00,
2013-05-14 15:39:00,72.2,46.5,30.21,North,0,0.0,0.0,40,0.00,,,0.00,WUHU216HW,2013-05-14 19:39:00,
2013-05-14 15:44:00,72.0,45.6,30.21,North,0,0.0,0.0,39,0.00,,,0.00,WUHU216HW,2013-05-14 19:44:00,
2013-05-14 15:49:00,72.2,46.5,30.21,North,0,0.0,0.0,40,0.00,,,0.00,WUHU216HW,2013-05-14 19:49:00,
2013-05-14 15:54:00,72.2,46.5,30.20,North,0,0.0,0.0,40,0.00,,,0.00,WUHU216HW,2013-05-14 19:54:00,
2013-05-14 16:00:00,72.5,46.9,30.20,North,0,0.0,0.0,40,0.00,,,0.00,WUHU216HW,2013-05-14 20:00:00,
2013-05-14 16:05:00,72.5,46.9,30.20,North,0,0.0,0.0,40,0.00,,,0.00,WUHU216HW,2013-05-14 20:05:00,
2013-05-14 16:10:00,72.4,46.7,30.19,North,0,0.0,0.0,40,0.00,,,0.00,WUHU216HW,2013-05-14 20:10:00,
2013-05-14 16:15:00,72.5,46.9,30.19,North,0,0.0,0.0,40,0.00,,,0.00,WUHU216HW,2013-05-14 20:15:00,
2013-05-14 16:20:00,72.5,47.5,30.19,North,0,0.0,0.0,41,0.00,,,0.00,WUHU216HW,2013-05-14 20:20:00,
2013-05-14 16:25:00,72.5,47.5,30.19,North,0,0.0,0.0,41,0.00,,,0.00,WUHU216HW,2013-05-14 20:25:00,
2013-05-14 16:30:00,72.5,47.5,30.19,North,0,0.0,0.0,41,0.00,,,0.00,WUHU216HW,2013-05-14 20:30:00,
2013-05-14 16:35:00,72.5,48.1,30.19,North,0,0.0,0.0,42,0.00,,,0.00,WUHU216HW,2013-05-14 20:35:00,
2013-05-14 16:41:00,72.7,48.2,30.19,North,0,0.0,0.0,42,0.00,,,0.00,WUHU216HW,2013-05-14 20:41:00,
2013-05-14 16:46:00,72.4,47.9,30.19,North,0,0.0,0.0,42,0.00,,,0.00,WUHU216HW,2013-05-14 20:46:00,
2013-05-14 16:51:00,72.4,47.4,30.19,North,0,0.0,0.0,41,0.00,,,0.00,WUHU216HW,2013-05-14 20:51:00,
2013-05-14 16:56:00,72.5,47.5,30.19,North,0,0.0,0.0,41,0.00,,,0.00,WUHU216HW,2013-05-14 20:56:00,
2013-05-14 17:01:00,72.7,47.6,30.19,North,0,0.0,0.0,41,0.00,,,0.00,WUHU216HW,2013-05-14 21:01:00,
2013-05-14 17:06:00,72.9,47.8,30.19,North,0,0.0,0.0,41,0.00,,,0.00,WUHU216HW,2013-05-14 21:06:00,
2013-05-14 17:11:00,72.9,47.3,30.19,North,0,0.0,0.0,40,0.00,,,0.00,WUHU216HW,2013-05-14 21:11:00,
2013-05-14 17:16:00,72.9,47.3,30.19,North,0,0.0,0.0,40,0.00,,,0.00,WUHU216HW,2013-05-14 21:16:00,
2013-05-14 17:22:00,72.9,47.3,30.19,North,0,0.0,0.0,40,0.00,,,0.00,WUHU216HW,2013-05-14 21:22:00,
2013-05-14 17:27:00,73.1,47.3,30.19,North,0,0.0,0.0,40,0.00,,,0.00,WUHU216HW,2013-05-14 21:27:00,
2013-05-14 17:32:00,72.9,47.3,30.19,North,0,0.0,0.0,40,0.00,,,0.00,WUHU216HW,2013-05-14 21:32:00,
2013-05-14 17:37:00,73.1,48.0,30.19,North,0,0.0,0.0,41,0.00,,,0.00,WUHU216HW,2013-05-14 21:37:00,
2013-05-14 17:42:00,73.1,47.3,30.19,North,0,0.0,0.0,40,0.00,,,0.00,WUHU216HW,2013-05-14 21:42:00,
2013-05-14 17:47:00,73.3,47.5,30.19,North,0,0.0,0.0,40,0.00,,,0.00,WUHU216HW,2013-05-14 21:47:00,
2013-05-14 17:52:00,72.9,47.8,30.19,North,0,0.0,0.0,41,0.00,,,0.00,WUHU216HW,2013-05-14 21:52:00,
2013-05-14 17:57:00,73.1,48.0,30.19,North,0,0.0,0.0,41,0.00,,,0.00,WUHU216HW,2013-05-14 21:57:00,
2013-05-14 18:03:00,73.3,47.5,30.19,North,0,0.0,0.0,40,0.00,,,0.00,WUHU216HW,2013-05-14 22:03:00,
2013-05-14 18:08:00,73.3,47.5,30.18,North,0,0.0,0.0,40,0.00,,,0.00,WUHU216HW,2013-05-14 22:08:00,
2013-05-14 18:13:00,73.4,47.7,30.18,North,0,0.0,0.0,40,0.00,,,0.00,WUHU216HW,2013-05-14 22:13:00,
2013-05-14 18:18:00,73.6,47.9,30.18,North,0,0.0,0.0,40,0.00,,,0.00,WUHU216HW,2013-05-14 22:18:00,
2013-05-14 18:23:00,73.6,47.9,30.18,North,0,0.0,0.0,40,0.00,,,0.00,WUHU216HW,2013-05-14 22:23:00,
2013-05-14 18:28:00,73.6,47.9,30.18,North,0,0.0,0.0,40,0.00,,,0.00,WUHU216HW,2013-05-14 22:28:00,
2013-05-14 18:50:00,73.8,44.3,30.18,North,0,0.0,0.0,35,0.00,,,0.00,WUHU216HW,2013-05-14 22:50:00,
2013-05-14 18:55:00,73.8,45.7,30.18,North,0,0.0,0.0,37,0.00,,,0.00,WUHU216HW,2013-05-14 22:55:00,
2013-05-14 19:00:00,73.6,45.6,30.18,North,0,0.0,0.0,37,0.00,,,0.00,WUHU216HW,2013-05-14 23:00:00,
2013-05-14 19:05:00,73.1,45.1,30.18,North,0,0.0,0.0,37,0.00,,,0.00,WUHU216HW,2013-05-14 23:05:00,
2013-05-14 19:11:00,72.7,44.8,30.18,North,0,0.0,0.0,37,0.00,,,0.00,WUHU216HW,2013-05-14 23:11:00,
2013-05-14 19:16:00,72.4,45.3,30.18,North,0,0.0,0.0,38,0.00,,,0.00,WUHU216HW,2013-05-14 23:16:00,
2013-05-14 19:21:00,72.4,45.3,30.18,North,0,0.0,0.0,38,0.00,,,0.00,WUHU216HW,2013-05-14 23:21:00,
2013-05-14 19:26:00,71.8,45.6,30.19,North,0,0.0,0.0,39,0.00,,,0.00,WUHU216HW,2013-05-14 23:26:00,
2013-05-14 19:31:00,71.3,45.7,30.18,North,0,0.0,0.0,40,0.00,,,0.00,WUHU216HW,2013-05-14 23:31:00,
2013-05-14 19:36:00,70.7,45.3,30.17,North,0,0.0,0.0,40,0.00,,,0.00,WUHU216HW,2013-05-14 23:36:00,
2013-05-14 19:41:00,70.0,44.7,30.18,North,0,0.0,0.0,40,0.00,,,0.00,WUHU216HW,2013-05-14 23:41:00,
2013-05-14 19:46:00,69.1,45.0,30.18,North,0,0.0,0.0,42,0.00,,,0.00,WUHU216HW,2013-05-14 23:46:00,
2013-05-14 19:52:00,68.0,44.7,30.18,North,0,0.0,0.0,43,0.00,,,0.00,WUHU216HW,2013-05-14 23:52:00,
2013-05-14 19:57:00,67.3,44.0,30.18,North,0,0.0,0.0,43,0.00,,,0.00,WUHU216HW,2013-05-14 23:57:00,
2013-05-14 20:02:00,67.0,44.8,30.18,North,0,0.0,0.0,45,0.00,,,0.00,WUHU216HW,2013-05-15 00:02:00,
2013-05-14 20:07:00,66.6,44.6,30.18,North,0,0.0,0.0,45,0.00,,,0.00,WUHU216HW,2013-05-15 00:07:00,
2013-05-14 20:12:00,66.4,45.5,30.18,North,0,0.0,0.0,47,0.00,,,0.00,WUHU216HW,2013-05-15 00:12:00,
2013-05-14 20:17:00,66.1,44.7,30.18,North,0,0.0,0.0,46,0.00,,,0.00,WUHU216HW,2013-05-15 00:17:00,
2013-05-14 20:22:00,66.1,44.7,30.18,North,0,0.0,0.0,46,0.00,,,0.00,WUHU216HW,2013-05-15 00:22:00,
2013-05-14 20:27:00,66.1,44.7,30.18,North,0,0.0,0.0,46,0.00,,,0.00,WUHU216HW,2013-05-15 00:27:00,
2013-05-14 20:33:00,65.9,44.5,30.18,North,0,0.0,0.0,46,0.00,,,0.00,WUHU216HW,2013-05-15 00:33:00,
2013-05-14 20:38:00,65.9,44.5,30.18,North,0,0.0,0.0,46,0.00,,,0.00,WUHU216HW,2013-05-15 00:38:00,
2013-05-14 20:43:00,65.9,44.5,30.17,North,0,0.0,0.0,46,0.00,,,0.00,WUHU216HW,2013-05-15 00:43:00,
2013-05-14 20:48:00,65.5,45.3,30.17,North,0,0.0,0.0,48,0.00,,,0.00,WUHU216HW,2013-05-15 00:48:00,
2013-05-14 20:53:00,65.5,45.8,30.17,North,0,0.0,0.0,49,0.00,,,0.00,WUHU216HW,2013-05-15 00:53:00,
2013-05-14 20:58:00,65.9,46.2,30.17,North,0,0.0,0.0,49,0.00,,,0.00,WUHU216HW,2013-05-15 00:58:00,
2013-05-14 21:03:00,65.9,46.2,30.17,North,0,0.0,0.0,49,0.00,,,0.00,WUHU216HW,2013-05-15 01:03:00,
2013-05-14 21:08:00,65.9,46.2,30.17,North,0,0.0,0.0,49,0.00,,,0.00,WUHU216HW,2013-05-15 01:08:00,
2013-05-14 21:14:00,65.9,45.6,30.17,North,0,0.0,0.0,48,0.00,,,0.00,WUHU216HW,2013-05-15 01:14:00,
2013-05-14 21:19:00,65.9,46.2,30.18,North,0,0.0,0.0,49,0.00,,,0.00,WUHU216HW,2013-05-15 01:19:00,
2013-05-14 21:24:00,65.7,46.0,30.18,North,0,0.0,0.0,49,0.00,,,0.00,WUHU216HW,2013-05-15 01:24:00,
2013-05-14 21:29:00,65.7,46.6,30.18,North,0,0.0,0.0,50,0.00,,,0.00,WUHU216HW,2013-05-15 01:29:00,
2013-05-14 21:34:00,65.7,47.1,30.19,North,0,0.0,0.0,51,0.00,,,0.00,WUHU216HW,2013-05-15 01:34:00,
2013-05-14 21:39:00,65.7,47.1,30.19,North,0,0.0,0.0,51,0.00,,,0.00,WUHU216HW,2013-05-15 01:39:00,
2013-05-14 21:44:00,65.5,46.9,30.19,North,0,0.0,0.0,51,0.00,,,0.00,WUHU216HW,2013-05-15 01:44:00,
2013-05-14 21:49:00,65.5,47.4,30.19,North,0,0.0,0.0,52,0.00,,,0.00,WUHU216HW,2013-05-15 01:49:00,
2013-05-14 21:55:00,65.5,47.4,30.19,North,0,0.0,0.0,52,0.00,,,0.00,WUHU216HW,2013-05-15 01:55:00,
2013-05-14 22:00:00,65.7,47.6,30.19,North,0,0.0,0.0,52,0.00,,,0.00,WUHU216HW,2013-05-15 02:00:00,
2013-05-14 22:05:00,65.7,47.6,30.19,North,0,0.0,0.0,52,0.00,,,0.00,WUHU216HW,2013-05-15 02:05:00,
2013-05-14 22:10:00,65.5,47.9,30.18,North,0,0.0,0.0,53,0.00,,,0.00,WUHU216HW,2013-05-15 02:10:00,
2013-05-14 22:15:00,65.2,48.1,30.18,North,0,0.0,0.0,54,0.00,,,0.00,WUHU216HW,2013-05-15 02:15:00,
2013-05-14 22:20:00,65.2,49.0,30.18,North,0,0.0,0.0,56,0.00,,,0.00,WUHU216HW,2013-05-15 02:20:00,
2013-05-14 22:25:00,65.0,48.8,30.18,North,0,0.0,0.0,56,0.00,,,0.00,WUHU216HW,2013-05-15 02:25:00,
2013-05-14 22:30:00,65.0,48.8,30.18,North,0,0.0,0.0,56,0.00,,,0.00,WUHU216HW,2013-05-15 02:30:00,
2013-05-14 22:36:00,64.8,48.6,30.18,North,0,0.0,0.0,56,0.00,,,0.00,WUHU216HW,2013-05-15 02:36:00,
2013-05-14 22:41:00,64.6,50.0,30.18,North,0,0.0,0.0,59,0.00,,,0.00,WUHU216HW,2013-05-15 02:41:00,
2013-05-14 22:46:00,64.6,49.4,30.18,North,0,0.0,0.0,58,0.00,,,0.00,WUHU216HW,2013-05-15 02:46:00,
2013-05-14 22:51:00,64.6,50.0,30.18,North,0,0.0,0.0,59,0.00,,,0.00,WUHU216HW,2013-05-15 02:51:00,
2013-05-14 22:56:00,64.8,49.6,30.18,North,0,0.0,0.0,58,0.00,,,0.00,WUHU216HW,2013-05-15 02:56:00,
2013-05-14 23:01:00,65.0,50.8,30.17,North,0,0.0,0.0,60,0.00,,,0.00,WUHU216HW,2013-05-15 03:01:00,
2013-05-14 23:06:00,65.3,51.1,30.17,North,0,0.0,0.0,60,0.00,,,0.00,WUHU216HW,2013-05-15 03:06:00,
2013-05-14 23:11:00,65.5,50.9,30.17,North,0,0.0,0.0,59,0.00,,,0.00,WUHU216HW,2013-05-15 03:11:00,
2013-05-14 23:16:00,65.7,51.0,30.17,North,0,0.0,0.0,59,0.00,,,0.00,WUHU216HW,2013-05-15 03:16:00,
2013-05-14 23:22:00,65.9,51.2,30.17,North,0,0.0,0.0,59,0.00,,,0.00,WUHU216HW,2013-05-15 03:22:00,
2013-05-14 23:27:00,65.9,51.2,30.17,North,0,0.0,0.0,59,0.00,,,0.00,WUHU216HW,2013-05-15 03:27:00,
2013-05-14 23:32:00,66.1,51.4,30.17,North,0,0.0,0.0,59,0.00,,,0.00,WUHU216HW,2013-05-15 03:32:00,
2013-05-14 23:37:00,66.1,51.4,30.17,North,0,0.0,0.0,59,0.00,,,0.00,WUHU216HW,2013-05-15 03:37:00,
2013-05-14 23:42:00,65.9,51.2,30.17,North,0,0.0,0.0,59,0.00,,,0.00,WUHU216HW,2013-05-15 03:42:00,
2013-05-14 23:47:00,65.9,51.7,30.17,North,0,0.0,0.0,60,0.00,,,0.00,WUHU216HW,2013-05-15 03:47:00,
2013-05-14 23:52:00,65.9,51.7,30.17,North,0,0.0,0.0,60,0.00,,,0.00,WUHU216HW,2013-05-15 03:52:00,
2013-05-14 23:57:00,65.9,51.7,30.17,North,0,0.0,0.0,60,0.00,,,0.00,WUHU216HW,2013-05-15 03:57:00,